QPF
0.00 0.00 0.00 0.00 0.00 0.00 0.00 0.00 0.00 0.00 0.00 0.00 0.00 0.00 0.00 0.00 0.00 0.00 0.00 0.00 0.00 0.00 0.00 0.00 0.00 0.00 0.00 0.00 0.00 0.00 0.00 0.00 0.00 0.00 0.00 0.00 0.00 0.00 0.01 0.01 0.01 0.01 0.01 0.01
0.00 0.00 0.00 0.00 0.00 0.00 0.00 0.00 0.00 0.00 0.00 0.00 0.00 0.00 0.00 0.00 0.00 0.00 0.00 0.00 0.00 0.00 0.00 0.00 0.00 0.00 0.00 0.00 0.00 0.00 0.00 0.00 0.00 0.00 0.01 0.01 0.01 0.01 0.01 0.01 0.02 0.02 0.03 0.03
0.00 0.00 0.00 0.00 0.00 0.00 0.00 0.00 0.00 0.00 0.00 0.00 0.00 0.00 0.00 0.00 0.00 0.00 0.00 0.00 0.00 0.00 0.00 0.00 0.00 0.00 0.00 0.00 0.00 0.00 0.00 0.00 0.00 0.01 0.01 0.01 0.01 0.02 0.02 0.03 0.04 0.04 0.05 0.05
0.00 0.00 0.00 0.00 0.00 0.00 0.00 0.00 0.00 0.00 0.00 0.00 0.00 0.00 0.00 0.00 0.00 0.00 0.00 0.00 0.00 0.00 0.00 0.00 0.00 0.00 0.00 0.00 0.00 0.00 0.00 0.01 0.01 0.01 0.02 0.02 0.03 0.03 0.04 0.06 0.07 0.08 0.08 0.08
0.00 0.00 0.00 0.00 0.00 0.00 0.00 0.00 0.00 0.00 0.00 0.00 0.00 0.00 0.00 0.00 0.00 0.00 0.00 0.00 0.00 0.00 0.00 0.00 0.00 0.00 0.00 0.00 0.00 0.01 0.01 0.01 0.01 0.02 0.03 0.04 0.05 0.05 0.07 0.08 0.09 0.10 0.10 0.10
0.00 0.00 0.00 0.00 0.00 0.00 0.00 0.00 0.00 0.00 0.00 0.00 0.00 0.00 0.00 0.00 0.00 0.00 0.00 0.00 0.00 0.00 0.00 0.00 0.00 0.00 0.00 0.00 0.01 0.01 0.01 0.01 0.02 0.03 0.05 0.05 0.06 0.07 0.08 0.10 0.10 0.11 0.11 0.11
0.00 0.00 0.00 0.00 0.00 0.00 0.00 0.00 0.00 0.00 0.00 0.00 0.00 0.00 0.00 0.00 0.00 0.00 0.00 0.00 0.00 0.00 0.00 0.00 0.00 0.00 0.01 0.01 0.01 0.01 0.01 0.02 0.02 0.03 0.05 0.05 0.06 0.08 0.10 0.12 0.12 0.12 0.11 0.12
0.00 0.00 0.00 0.00 0.00 0.00 0.00 0.00 0.00 0.00 0.00 0.00 0.00 0.00 0.00 0.00 0.00 0.00 0.00 0.00 0.00 0.00 0.00 0.00 0.00 0.01 0.01 0.01 0.01 0.01 0.02 0.02 0.02 0.03 0.04 0.05 0.07 0.08 0.11 0.12 0.12 0.12 0.11 0.11
0.00 0.00 0.00 0.00 0.00 0.00 0.00 0.00 0.00 0.00 0.00 0.00 0.00 0.00 0.00 0.00 0.00 0.00 0.00 0.00 0.00 0.00 0.00 0.00 0.00 0.01 0.01 0.01 0.02 0.02 0.02 0.02 0.03 0.03 0.04 0.06 0.08 0.08 0.09 0.10 0.12 0.13 0.11 0.10
0.00 0.00 0.00 0.00 0.00 0.00 0.00 0.00 0.00 0.00 0.00 0.00 0.00 0.00 0.00 0.00 0.00 0.00 0.00 0.00 0.00 0.00 0.00 0.00 0.00 0.00 0.01 0.02 0.02 0.02 0.02 0.02 0.02 0.03 0.05 0.06 0.06 0.07 0.08 0.10 0.11 0.10 0.11 0.10
0.00 0.00 0.00 0.00 0.00 0.00 0.00 0.00 0.00 0.00 0.00 0.00 0.00 0.00 0.00 0.00 0.00 0.00 0.00 0.00 0.00 0.00 0.00 0.00 0.00 0.00 0.01 0.02 0.02 0.02 0.02 0.02 0.02 0.03 0.04 0.04 0.05 0.05 0.06 0.08 0.07 0.06 0.09 0.09
0.00 0.00 0.00 0.00 0.00 0.00 0.00 0.00 0.00 0.00 0.00 0.00 0.00 0.00 0.00 0.00 0.00 0.00 0.00 0.00 0.00 0.00 0.00 0.00 0.00 0.01 0.01 0.02 0.02 0.03 0.03 0.02 0.02 0.03 0.04 0.04 0.05 0.05 0.04 0.03 0.02 0.02 0.03 0.04
0.00 0.00 0.00 0.00 0.00 0.00 0.00 0.00 0.00 0.00 0.00 0.00 0.00 0.00 0.00 0.00 0.00 0.00 0.00 0.00 0.00 0.00 0.00 0.00 0.00 0.01 0.02 0.02 0.02 0.03 0.03 0.02 0.02 0.03 0.04 0.05 0.06 0.06 0.07 0.05 0.03 0.02 0.02 0.02
0.00 0.00 0.00 0.00 0.00 0.00 0.00 0.00 0.00 0.00 0.00 0.00 0.00 0.00 0.00 0.00 0.00 0.00 0.00 0.00 0.00 0.00 0.00 0.00 0.01 0.01 0.02 0.02 0.03 0.03 0.03 0.03 0.02 0.03 0.05 0.05 0.06 0.07 0.07 0.07 0.08 0.05 0.02 0.02
0.00 0.00 0.00 0.00 0.00 0.00 0.00 0.00 0.00 0.00 0.00 0.00 0.00 0.00 0.00 0.00 0.00 0.00 0.00 0.00 0.00 0.00 0.00 0.00 0.01 0.01 0.02 0.02 0.02 0.03 0.03 0.02 0.02 0.03 0.05 0.05 0.05 0.07 0.06 0.06 0.07 0.07 0.05 0.03
0.00 0.00 0.00 0.00 0.00 0.00 0.00 0.00 0.00 0.00 0.00 0.00 0.00 0.00 0.00 0.00 0.00 0.00 0.00 0.00 0.00 0.00 0.00 0.00 0.01 0.01 0.01 0.01 0.02 0.03 0.03 0.02 0.02 0.03 0.04 0.05 0.06 0.07 0.07 0.06 0.06 0.06 0.05 0.03
0.00 0.00 0.00 0.00 0.00 0.00 0.00 0.00 0.00 0.00 0.00 0.00 0.00 0.00 0.00 0.00 0.00 0.00 0.00 0.00 0.00 0.00 0.00 0.00 0.00 0.01 0.01 0.01 0.02 0.02 0.02 0.02 0.02 0.03 0.03 0.04 0.05 0.06 0.07 0.07 0.07 0.06 0.04 0.03
0.00 0.00 0.00 0.00 0.00 0.00 0.00 0.00 0.00 0.00 0.00 0.00 0.00 0.00 0.00 0.00 0.00 0.00 0.00 0.00 0.00 0.00 0.00 0.00 0.00 0.00 0.01 0.01 0.02 0.02 0.02 0.02 0.02 0.03 0.03 0.03 0.03 0.05 0.06 0.07 0.06 0.05 0.04 0.03
0.00 0.00 0.00 0.00 0.00 0.00 0.00 0.00 0.00 0.00 0.00 0.00 0.00 0.00 0.00 0.00 0.00 0.00 0.00 0.00 0.00 0.00 0.00 0.00 0.00 0.00 0.00 0.01 0.01 0.01 0.01 0.01 0.02 0.02 0.02 0.02 0.03 0.04 0.05 0.05 0.05 0.05 0.05 0.05
0.00 0.00 0.00 0.00 0.00 0.00 0.00 0.00 0.00 0.00 0.00 0.00 0.00 0.00 0.00 0.00 0.00 0.00 0.00 0.00 0.00 0.00 0.00 0.00 0.00 0.00 0.00 0.00 0.01 0.01 0.01 0.01 0.01 0.02 0.02 0.02 0.03 0.04 0.04 0.04 0.04 0.04 0.04 0.05
0.00 0.00 0.00 0.00 0.00 0.00 0.00 0.00 0.00 0.00 0.00 0.00 0.00 0.00 0.00 0.00 0.00 0.00 0.00 0.00 0.00 0.00 0.00 0.00 0.00 0.00 0.00 0.00 0.00 0.01 0.01 0.01 0.01 0.01 0.02 0.02 0.03 0.04 0.04 0.04 0.04 0.05 0.06 0.07
0.00 0.00 0.00 0.00 0.00 0.00 0.00 0.00 0.00 0.00 0.00 0.00 0.00 0.00 0.00 0.00 0.00 0.00 0.00 0.00 0.00 0.00 0.00 0.00 0.00 0.00 0.00 0.00 0.00 0.00 0.01 0.01 0.01 0.01 0.01 0.02 0.03 0.03 0.03 0.03 0.04 0.05 0.07 0.08
0.00 0.00 0.00 0.00 0.00 0.00 0.00 0.00 0.00 0.00 0.00 0.00 0.00 0.00 0.00 0.00 0.00 0.00 0.00 0.00 0.00 0.00 0.00 0.00 0.00 0.00 0.00 0.00 0.00 0.00 0.00 0.01 0.01 0.01 0.01 0.01 0.02 0.02 0.02 0.02 0.03 0.04 0.05 0.05
0.00 0.00 0.00 0.00 0.00 0.00 0.00 0.00 0.00 0.00 0.00 0.00 0.00 0.00 0.00 0.00 0.00 0.00 0.00 0.00 0.00 0.00 0.00 0.00 0.00 0.00 0.00 0.00 0.00 0.00 0.00 0.00 0.00 0.00 0.01 0.01 0.01 0.01 0.02 0.02 0.03 0.03 0.04 0.03
0.00 0.00 0.00 0.00 0.00 0.00 0.00 0.00 0.00 0.00 0.00 0.00 0.00 0.00 0.00 0.00 0.00 0.00 0.00 0.00 0.00 0.00 0.00 0.00 0.00 0.00 0.00 0.00 0.00 0.00 0.00 0.00 0.00 0.00 0.00 0.01 0.01 0.01 0.02 0.03 0.02 0.02 0.03 0.03
0.00 0.00 0.00 0.00 0.00 0.00 0.01 0.01 0.00 0.00 0.00 0.00 0.00 0.00 0.00 0.00 0.00 0.00 0.00 0.00 0.00 0.00 0.00 0.00 0.00 0.00 0.00 0.00 0.00 0.00 0.00 0.00 0.00 0.00 0.00 0.01 0.01 0.00 0.01 0.02 0.02 0.02 0.02 0.03
0.00 0.00 0.00 0.01 0.01 0.01 0.01 0.01 0.01 0.01 0.01 0.00 0.00 0.00 0.00 0.00 0.00 0.00 0.00 0.00 0.00 0.00 0.00 0.00 0.00 0.00 0.00 0.00 0.00 0.00 0.00 0.00 0.00 0.00 0.00 0.00 0.00 0.01 0.00 0.00 0.01 0.01 0.02 0.02
MSLP
1013.03 1013.26 1013.48 1013.66 1013.81 1013.90 1013.94 1013.93 1013.86 1013.76 1013.64 1013.51 1013.39 1013.30 1013.24 1013.20 1013.16 1013.10 1013.02 1012.88 1012.69 1012.43 1012.14 1011.81 1011.47 1011.15 1010.84 1010.56 1010.29 1010.04 1009.78 1009.50 1009.18 1008.83 1008.45 1008.04 1007.63 1007.22 1006.83 1006.48 1006.16 1005.88 1005.64 1005.45
1013.20 1013.45 1013.65 1013.80 1013.89 1013.92 1013.89 1013.81 1013.70 1013.57 1013.45 1013.34 1013.25 1013.19 1013.15 1013.12 1013.08 1013.01 1012.89 1012.72 1012.49 1012.21 1011.90 1011.57 1011.23 1010.90 1010.60 1010.31 1010.03 1009.74 1009.44 1009.11 1008.74 1008.34 1007.92 1007.48 1007.05 1006.63 1006.24 1005.88 1005.56 1005.27 1005.01 1004.79
1013.27 1013.51 1013.69 1013.80 1013.84 1013.81 1013.73 1013.62 1013.49 1013.36 1013.25 1013.17 1013.12 1013.10 1013.08 1013.06 1013.01 1012.91 1012.76 1012.54 1012.27 1011.96 1011.62 1011.27 1010.93 1010.60 1010.29 1009.99 1009.69 1009.37 1009.03 1008.64 1008.22 1007.77 1007.30 1006.82 1006.37 1005.94 1005.55 1005.20 1004.88 1004.60 1004.33 1004.10
1013.21 1013.43 1013.57 1013.63 1013.63 1013.56 1013.45 1013.32 1013.20 1013.09 1013.02 1012.98 1012.98 1012.99 1013.00 1012.98 1012.91 1012.78 1012.59 1012.32 1012.00 1011.64 1011.27 1010.90 1010.54 1010.21 1009.89 1009.58 1009.25 1008.90 1008.51 1008.08 1007.60 1007.10 1006.58 1006.07 1005.59 1005.14 1004.75 1004.41 1004.11 1003.83 1003.59 1003.36
1013.04 1013.19 1013.27 1013.29 1013.24 1013.15 1013.03 1012.91 1012.81 1012.74 1012.72 1012.73 1012.78 1012.83 1012.86 1012.84 1012.76 1012.60 1012.36 1012.04 1011.67 1011.27 1010.86 1010.46 1010.08 1009.73 1009.40 1009.07 1008.72 1008.34 1007.91 1007.43 1006.91 1006.35 1005.78 1005.23 1004.72 1004.26 1003.87 1003.53 1003.25 1003.00 1002.79 1002.59
1012.73 1012.80 1012.82 1012.79 1012.71 1012.60 1012.49 1012.39 1012.33 1012.32 1012.35 1012.42 1012.51 1012.60 1012.65 1012.64 1012.54 1012.35 1012.07 1011.71 1011.29 1010.85 1010.40 1009.97 1009.57 1009.21 1008.86 1008.51 1008.14 1007.72 1007.26 1006.73 1006.16 1005.56 1004.95 1004.36 1003.82 1003.34 1002.95 1002.62 1002.36 1002.15 1001.97 1001.83
1012.29 1012.28 1012.24 1012.17 1012.07 1011.97 1011.88 1011.82 1011.81 1011.86 1011.95 1012.07 1012.21 1012.32 1012.39 1012.37 1012.26 1012.05 1011.73 1011.33 1010.88 1010.41 1009.93 1009.48 1009.06 1008.67 1008.30 1007.93 1007.53 1007.09 1006.59 1006.03 1005.42 1004.77 1004.12 1003.50 1002.94 1002.45 1002.05 1001.74 1001.50 1001.33 1001.21 1001.13
1011.73 1011.65 1011.57 1011.47 1011.38 1011.31 1011.26 1011.26 1011.31 1011.42 1011.56 1011.73 1011.90 1012.03 1012.10 1012.08 1011.95 1011.71 1011.38 1010.96 1010.48 1009.99 1009.50 1009.03 1008.59 1008.18 1007.79 1007.40 1006.97 1006.50 1005.96 1005.36 1004.71 1004.03 1003.36 1002.71 1002.13 1001.64 1001.24 1000.95 1000.74 1000.62 1000.56 1000.55
1011.06 1010.94 1010.84 1010.75 1010.70 1010.68 1010.70 1010.77 1010.89 1011.05 1011.24 1011.44 1011.63 1011.76 1011.82 1011.78 1011.64 1011.38 1011.03 1010.60 1010.12 1009.62 1009.13 1008.65 1008.21 1007.78 1007.37 1006.94 1006.48 1005.96 1005.39 1004.76 1004.08 1003.37 1002.68 1002.02 1001.44 1000.95 1000.57 1000.30 1000.13 1000.06 1000.07 1000.13
1010.29 1010.16 1010.08 1010.04 1010.05 1010.11 1010.22 1010.38 1010.57 1010.79 1011.01 1011.23 1011.41 1011.53 1011.57 1011.50 1011.34 1011.07 1010.72 1010.29 1009.82 1009.33 1008.85 1008.37 1007.92 1007.48 1007.03 1006.57 1006.06 1005.50 1004.89 1004.22 1003.51 1002.78 1002.08 1001.43 1000.86 1000.39 1000.04 999.81 999.69 999.68 999.74 999.86
1009.44 1009.33 1009.31 1009.35 1009.46 1009.62 1009.83 1010.08 1010.34 1010.61 1010.86 1011.08 1011.25 1011.34 1011.34 1011.25 1011.07 1010.79 1010.44 1010.03 1009.58 1009.11 1008.65 1008.18 1007.72 1007.26 1006.78 1006.27 1005.71 1005.10 1004.44 1003.73 1002.99 1002.26 1001.55 1000.92 1000.38 999.95 999.65 999.47 999.41 999.45 999.56 999.73
1008.52 1008.47 1008.53 1008.67 1008.89 1009.17 1009.49 1009.83 1010.17 1010.48 1010.75 1010.97 1011.10 1011.16 1011.12 1011.00 1010.79 1010.51 1010.17 1009.79 1009.38 1008.95 1008.50 1008.06 1007.59 1007.11 1006.59 1006.03 1005.41 1004.73 1004.01 1003.26 1002.50 1001.76 1001.07 1000.48 999.98 999.61 999.37 999.26 999.25 999.33 999.49 999.68
1007.58 1007.60 1007.74 1007.99 1008.33 1008.73 1009.16 1009.59 1009.99 1010.34 1010.62 1010.82 1010.93 1010.94 1010.87 1010.72 1010.51 1010.23 1009.91 1009.56 1009.19 1008.80 1008.39 1007.96 1007.49 1006.98 1006.42 1005.80 1005.12 1004.38 1003.60 1002.81 1002.03 1001.29 1000.63 1000.07 999.64 999.34 999.17 999.12 999.17 999.30 999.47 999.67
1006.66 1006.74 1006.97 1007.32 1007.76 1008.26 1008.78 1009.28 1009.74 1010.12 1010.41 1010.60 1010.68 1010.67 1010.57 1010.40 1010.18 1009.92 1009.63 1009.32 1008.99 1008.65 1008.27 1007.86 1007.39 1006.86 1006.26 1005.58 1004.83 1004.03 1003.20 1002.37 1001.58 1000.85 1000.22 999.71 999.35 999.12 999.02 999.03 999.13 999.29 999.48 999.66
1005.83 1005.97 1006.25 1006.66 1007.18 1007.75 1008.34 1008.90 1009.39 1009.80 1010.10 1010.28 1010.35 1010.32 1010.21 1010.04 1009.83 1009.59 1009.33 1009.07 1008.79 1008.49 1008.15 1007.76 1007.29 1006.74 1006.10 1005.38 1004.57 1003.72 1002.85 1001.99 1001.18 1000.47 999.87 999.42 999.12 998.95 998.92 998.99 999.12 999.30 999.47 999.63
1005.17 1005.32 1005.63 1006.08 1006.63 1007.24 1007.86 1008.45 1008.97 1009.39 1009.70 1009.88 1009.95 1009.92 1009.82 1009.66 1009.46 1009.25 1009.04 1008.82 1008.59 1008.33 1008.03 1007.65 1007.20 1006.64 1005.97 1005.21 1004.37 1003.48 1002.57 1001.69 1000.89 1000.19 999.63 999.22 998.97 998.86 998.87 998.98 999.13 999.30 999.46 999.57
1004.75 1004.89 1005.18 1005.61 1006.15 1006.76 1007.38 1007.98 1008.50 1008.94 1009.25 1009.45 1009.53 1009.51 1009.43 1009.29 1009.12 1008.95 1008.78 1008.60 1008.42 1008.20 1007.93 1007.58 1007.13 1006.57 1005.90 1005.12 1004.25 1003.34 1002.42 1001.54 1000.74 1000.06 999.52 999.15 998.93 998.85 998.89 999.01 999.16 999.31 999.43 999.50
1004.61 1004.69 1004.93 1005.31 1005.81 1006.37 1006.96 1007.54 1008.06 1008.49 1008.81 1009.03 1009.13 1009.14 1009.08 1008.97 1008.85 1008.71 1008.58 1008.45 1008.30 1008.12 1007.88 1007.55 1007.12 1006.57 1005.91 1005.13 1004.26 1003.35 1002.44 1001.56 1000.77 1000.10 999.58 999.22 999.02 998.95 998.98 999.08 999.21 999.33 999.40 999.42
1004.72 1004.74 1004.89 1005.19 1005.60 1006.10 1006.63 1007.17 1007.66 1008.09 1008.42 1008.65 1008.78 1008.82 1008.80 1008.73 1008.64 1008.55 1008.45 1008.35 1008.23 1008.08 1007.87 1007.57 1007.17 1006.65 1006.01 1005.25 1004.41 1003.52 1002.62 1001.76 1000.99 1000.33 999.81 999.45 999.23 999.14 999.14 999.21 999.29 999.36 999.38 999.34
1005.02 1004.95 1005.01 1005.20 1005.51 1005.92 1006.38 1006.87 1007.33 1007.74 1008.07 1008.32 1008.48 1008.56 1008.57 1008.55 1008.49 1008.43 1008.37 1008.30 1008.21 1008.09 1007.90 1007.64 1007.27 1006.78 1006.18 1005.46 1004.66 1003.81 1002.94 1002.11 1001.35 1000.69 1000.17 999.78 999.53 999.40 999.35 999.36 999.38 999.39 999.36 999.28
1005.39 1005.22 1005.17 1005.26 1005.47 1005.78 1006.16 1006.59 1007.01 1007.41 1007.74 1008.01 1008.19 1008.31 1008.36 1008.37 1008.35 1008.33 1008.29 1008.25 1008.18 1008.09 1007.94 1007.71 1007.39 1006.95 1006.40 1005.74 1004.99 1004.19 1003.36 1002.56 1001.81 1001.15 1000.61 1000.19 999.90 999.71 999.59 999.53 999.49 999.45 999.37 999.25
1005.68 1005.42 1005.28 1005.26 1005.36 1005.59 1005.90 1006.26 1006.65 1007.03 1007.37 1007.65 1007.86 1008.01 1008.10 1008.15 1008.17 1008.17 1008.17 1008.15 1008.12 1008.06 1007.95 1007.76 1007.49 1007.11 1006.62 1006.03 1005.34 1004.60 1003.82 1003.05 1002.32 1001.66 1001.10 1000.64 1000.29 1000.04 999.86 999.73 999.63 999.53 999.41 999.26
1005.78 1005.44 1005.21 1005.10 1005.12 1005.27 1005.52 1005.83 1006.19 1006.55 1006.89 1007.19 1007.43 1007.61 1007.75 1007.83 1007.89 1007.93 1007.96 1007.98 1007.99 1007.96 1007.90 1007.76 1007.55 1007.24 1006.82 1006.30 1005.69 1005.01 1004.29 1003.55 1002.84 1002.18 1001.60 1001.11 1000.71 1000.39 1000.15 999.96 999.81 999.67 999.52 999.36
1005.62 1005.21 1004.91 1004.73 1004.69 1004.78 1004.98 1005.26 1005.59 1005.95 1006.29 1006.61 1006.88 1007.10 1007.28 1007.41 1007.51 1007.59 1007.67 1007.73 1007.78 1007.80 1007.79 1007.72 1007.57 1007.33 1006.99 1006.55 1006.01 1005.40 1004.73 1004.04 1003.35 1002.70 1002.11 1001.59 1001.15 1000.79 1000.50 1000.26 1000.07 999.90 999.74 999.59
1005.20 1004.74 1004.39 1004.16 1004.08 1004.13 1004.29 1004.55 1004.88 1005.23 1005.59 1005.93 1006.24 1006.50 1006.72 1006.90 1007.05 1007.19 1007.31 1007.42 1007.52 1007.60 1007.65 1007.64 1007.56 1007.40 1007.14 1006.77 1006.31 1005.77 1005.16 1004.52 1003.87 1003.24 1002.64 1002.11 1001.65 1001.26 1000.94 1000.68 1000.46 1000.28 1000.12 999.98
1004.57 1004.08 1003.70 1003.46 1003.35 1003.38 1003.54 1003.79 1004.11 1004.48 1004.86 1005.22 1005.57 1005.87 1006.14 1006.37 1006.58 1006.77 1006.95 1007.12 1007.28 1007.42 1007.53 1007.59 1007.58 1007.48 1007.30 1007.01 1006.62 1006.15 1005.61 1005.03 1004.42 1003.81 1003.24 1002.71 1002.25 1001.85 1001.52 1001.25 1001.03 1000.85 1000.70 1000.56
1003.87 1003.37 1002.98 1002.73 1002.63 1002.66 1002.81 1003.07 1003.40 1003.78 1004.18 1004.58 1004.96 1005.31 1005.63 1005.92 1006.18 1006.43 1006.67 1006.90 1007.12 1007.32 1007.48 1007.60 1007.65 1007.63 1007.51 1007.30 1006.98 1006.58 1006.11 1005.59 1005.03 1004.47 1003.93 1003.43 1002.98 1002.60 1002.27 1002.01 1001.79 1001.61 1001.47 1001.35
Thickness
5739 5738 5735 5729 5724 5720 5714 5708 5701 5699 5697 5701 5696 5688 5680 5674 5667 5659 5651 5644 5636 5630 5623 5617 5612 5607 5603 5599 5594 5588 5583 5578 5573 5568 5563 5557 5553 5548 5545 5542 5541 5541 5542 5545
5732 5733 5730 5723 5721 5716 5711 5708 5704 5701 5699 5702 5693 5685 5677 5669 5660 5652 5645 5638 5630 5624 5617 5612 5606 5601 5597 5592 5587 5580 5574 5569 5563 5557 5551 5545 5540 5535 5531 5528 5526 5525 5526 5529
5731 5730 5723 5717 5722 5716 5711 5710 5703 5695 5696 5697 5687 5678 5670 5662 5654 5646 5638 5631 5624 5618 5612 5606 5601 5596 5591 5586 5580 5573 5566 5560 5554 5548 5542 5535 5530 5524 5519 5515 5513 5512 5512 5515
5729 5718 5700 5722 5731 5722 5711 5709 5709 5702 5698 5692 5683 5676 5670 5662 5650 5640 5633 5626 5619 5613 5608 5603 5598 5591 5585 5579 5573 5566 5560 5555 5548 5541 5534 5528 5521 5515 5510 5505 5502 5501 5502 5504
5724 5718 5720 5722 5721 5716 5706 5703 5709 5699 5693 5688 5684 5674 5673 5660 5646 5636 5628 5621 5614 5608 5604 5598 5592 5586 5579 5573 5567 5561 5555 5549 5542 5535 5528 5521 5515 5509 5503 5498 5496 5494 5494 5495
5721 5705 5702 5719 5723 5718 5705 5698 5705 5697 5688 5682 5675 5667 5665 5656 5644 5635 5626 5618 5611 5605 5599 5594 5587 5580 5574 5568 5563 5557 5551 5544 5536 5529 5522 5516 5510 5504 5499 5494 5491 5489 5489 5490
5719 5711 5721 5726 5721 5710 5692 5694 5699 5693 5684 5676 5667 5660 5657 5651 5641 5631 5623 5616 5608 5601 5595 5589 5582 5576 5570 5565 5559 5553 5546 5539 5533 5526 5519 5513 5507 5502 5497 5492 5489 5486 5486 5487
5716 5706 5712 5723 5716 5706 5703 5703 5696 5688 5681 5672 5665 5659 5653 5645 5636 5628 5621 5614 5606 5599 5592 5585 5579 5572 5566 5562 5556 5549 5543 5537 5531 5525 5519 5513 5506 5502 5497 5492 5488 5485 5484 5485
5725 5722 5724 5727 5722 5718 5710 5700 5693 5686 5679 5670 5662 5655 5649 5641 5632 5625 5617 5611 5603 5595 5589 5583 5576 5569 5563 5559 5553 5547 5541 5535 5530 5525 5519 5512 5507 5502 5498 5493 5488 5485 5484 5485
5720 5729 5727 5724 5721 5715 5707 5698 5692 5683 5675 5667 5658 5652 5645 5637 5629 5621 5614 5607 5600 5592 5586 5580 5574 5567 5561 5557 5551 5545 5540 5535 5531 5526 5521 5515 5509 5503 5499 5495 5491 5487 5486 5486
5718 5725 5723 5721 5718 5714 5705 5696 5688 5680 5672 5663 5655 5648 5640 5632 5625 5618 5610 5603 5596 5588 5582 5577 5571 5566 5561 5556 5550 5545 5540 5535 5532 5528 5522 5516 5512 5505 5501 5496 5490 5486 5486 5487
5720 5729 5721 5720 5719 5712 5701 5691 5684 5675 5667 5661 5652 5644 5636 5629 5622 5614 5607 5600 5593 5586 5580 5574 5569 5565 5560 5555 5550 5544 5541 5537 5533 5529 5524 5519 5514 5510 5501 5494 5488 5484 5482 5482
5733 5733 5728 5722 5714 5708 5699 5690 5682 5672 5663 5655 5649 5641 5633 5625 5618 5611 5605 5598 5590 5584 5578 5573 5567 5564 5560 5555 5550 5546 5542 5539 5535 5531 5526 5522 5517 5513 5508 5499 5491 5486 5484 5484
5732 5724 5717 5714 5710 5703 5696 5687 5679 5669 5661 5653 5645 5637 5630 5622 5616 5609 5602 5595 5589 5582 5577 5572 5567 5563 5559 5555 5551 5548 5545 5542 5537 5534 5529 5525 5520 5515 5511 5507 5503 5499 5491 5486
5728 5721 5718 5714 5707 5698 5690 5682 5672 5665 5658 5650 5642 5634 5626 5619 5612 5606 5601 5594 5588 5582 5577 5571 5566 5563 5559 5555 5553 5550 5548 5545 5540 5537 5534 5529 5524 5519 5514 5509 5506 5503 5501 5494
5726 5718 5713 5705 5698 5692 5684 5676 5668 5662 5654 5646 5638 5630 5623 5616 5610 5605 5599 5593 5585 5581 5575 5570 5565 5561 5558 5556 5554 5553 5551 5546 5542 5541 5538 5534 5528 5523 5518 5513 5509 5507 5505 5503
5718 5710 5705 5699 5695 5688 5681 5674 5666 5658 5650 5642 5634 5627 5620 5614 5608 5603 5596 5590 5583 5578 5574 5568 5564 5559 5558 5557 5556 5555 5554 5552 5546 5545 5542 5537 5531 5525 5520 5516 5513 5511 5509 5506
5719 5715 5710 5703 5696 5687 5677 5670 5662 5653 5645 5638 5630 5623 5616 5610 5605 5599 5594 5588 5583 5579 5574 5567 5561 5558 5560 5559 5557 5557 5557 5555 5552 5549 5545 5540 5533 5529 5525 5521 5518 5516 5514 5510
5712 5708 5704 5697 5691 5682 5674 5665 5657 5649 5640 5632 5624 5618 5612 5607 5601 5596 5591 5586 5582 5578 5572 5566 5558 5560 5560 5559 5556 5559 5559 5559 5556 5553 5549 5541 5538 5534 5531 5527 5524 5522 5519 5517
5700 5698 5693 5687 5681 5674 5666 5658 5651 5642 5635 5627 5620 5614 5609 5604 5598 5592 5588 5584 5580 5571 5564 5561 5559 5559 5557 5557 5555 5560 5561 5560 5559 5557 5553 5549 5543 5538 5535 5531 5529 5526 5525 5523
5686 5684 5680 5676 5670 5665 5659 5652 5644 5636 5629 5622 5615 5610 5605 5600 5595 5590 5585 5583 5576 5566 5560 5559 5559 5555 5553 5551 5554 5560 5561 5561 5560 5559 5556 5553 5548 5544 5540 5537 5533 5531 5530 5528
5672 5671 5669 5666 5662 5656 5651 5645 5637 5630 5624 5617 5612 5607 5602 5597 5593 5587 5582 5577 5569 5559 5557 5560 5556 5549 5546 5549 5556 5558 5559 5559 5560 5559 5558 5555 5553 5550 5546 5543 5540 5538 5536 5534
5657 5657 5657 5655 5652 5648 5643 5637 5631 5625 5618 5612 5607 5602 5598 5592 5588 5584 5579 5573 5565 5555 5554 5555 5546 5543 5543 5552 5553 5554 5555 5556 5557 5558 5558 5557 5555 5553 5550 5548 5546 5545 5544 5543
5642 5644 5644 5644 5642 5639 5635 5631 5626 5619 5613 5608 5603 5597 5592 5590 5586 5582 5574 5566 5559 5552 5554 5549 5543 5541 5543 5549 5550 5550 5551 5553 5555 5557 5558 5558 5557 5555 5553 5551 5550 5549 5550 5550
5628 5629 5631 5631 5630 5630 5628 5623 5618 5612 5607 5604 5600 5594 5590 5586 5581 5576 5568 5563 5557 5551 5552 5548 5542 5540 5543 5543 5544 5544 5546 5546 5549 5552 5554 5556 5557 5557 5555 5554 5553 5553 5553 5554
5614 5617 5621 5620 5621 5622 5623 5619 5614 5609 5605 5601 5597 5592 5587 5582 5576 5570 5565 5561 5556 5549 5548 5545 5543 5540 5539 5538 5538 5538 5540 5542 5546 5548 5549 5551 5554 5555 5554 5554 5554 5554 5555 5556
5602 5606 5607 5610 5613 5614 5614 5612 5608 5605 5602 5597 5593 5588 5583 5578 5572 5566 5561 5557 5552 5548 5544 5541 5538 5536 5533 5532 5532 5532 5532 5534 5538 5540 5543 5545 5548 5551 5552 5552 5553 5554 5554 5556